Погода в Прималкинском

Россия / Кабардино-Балкарская Республика     43°44′50″N   43°59′59″E
темп.,
°C
ветер,
м/с
пор.,
м/с
влажн.,
%
обл.,
%
осадки,
мм/ч
давл.,
гПа
погр.,
м
16 сентября, чт
чт1600:00+19вюв11430 0.0 101111
03:00+18ююз11613 0.0 101111
06:00+17всв11660 0.1 101111
09:00+22св45470 0.2 1010580
12:00+25всв454038 0.4 10111227
15:00+26св233499 0.5 10101707
18:00+23ссз3339100 0.0 101139
21:00+21с3641100 0.0 1014214
17 сентября, пт
пт1700:00+19ссв4742100 0.0 1015504
03:00+17ссв2551100 0.0 1016443
06:00+16св2655100 0.0 1016377
09:00+18в5743100 0.0 1016780
12:00+22в564288 0.0 10151810
15:00+22в4544100 0.0 10141539
18:00+20в3549100 0.0 1015146
21:00+18в485874 0.0 1015274
18 сентября, сб
сб1800:00+16в596692 0.0 1016258
03:00+14всв357528 0.0 1016116
06:00+13всв247967 0.0 101691
09:00+18в33648 0.0 1017571
12:00+23в44485 0.0 10151183
15:00+24в54439 0.0 10141586
18:00+21всв48538 0.0 1015177
21:00+18всв495511 0.0 1015221
19 сентября, вс
вс1900:00+15в497038 0.0 1016234
03:00+14всв3782100 0.0 1016193
06:00+13в368482 0.0 1016159
09:00+18в456499 0.0 1016634
12:00+23в445098 0.0 10151118
15:00+25в344481 0.0 10141555
18:00+22всв3654100 0.0 101492
21:00+19в5105795 0.0 1015307
20 сентября, пн
пн2000:00+16в367166 0.0 1014133
03:00+15в228271 0.0 101324
06:00+14юв118478 0.0 101311
09:00+20сз115995 0.0 1013379
12:00+25св324534 0.0 1012912
15:00+27св22395 0.0 10111500
18:00+23св334824 0.0 101124
21:00+20ююв116038 0.0 101212